Location: Rancho Del Sol Observatory
(38.7214°N, 120.6350°W)
Time: 03:03:36
(UTC-08:00)

A-11 Canister half - Pass Details

Date: 26 January 2020
Orbit: 1517 x 1683 km, 47.2° (Epoch: 25 February)

Event Time Altitude Azimuth Distance (km) Brightness Sun altitude
Exits shadow 04:33:58 54° 318° (NW) 1,794 9.0 -31.1°
Maximum altitude 04:36:23 75° 26° (NNE) 1,566 8.9 -30.6°
Drops below altitude 10° 04:45:44 10° 112° (ESE) 3,712 11.8 -28.8°
Sets 04:48:50 0° 114° (ESE) 4,712 12.6 -28.2°
